Temp
64 64 64 63 63 62 63 64 64 62 61 61 60 60 61 61 61 61 60 60 60 60 60 60 60 60 66 69 75 83 73 74 82 86 83 80 77 77 72 76 77 74 77 80 80 79 78
62 62 62 61 61 61 63 62 62 62 61 61 60 59 59 60 60 60 60 59 59 59 59 60 60 59 68 61 86 89 86 85 86 84 82 82 77 79 73 74 73 76 75 76 78 78 79
63 62 60 59 59 59 60 61 61 61 60 60 60 59 59 59 59 59 59 59 59 59 59 60 60 66 63 64 86 89 87 84 86 83 78 83 81 75 76 71 78 75 68 73 76 77 75
60 59 59 58 58 59 60 60 60 60 59 59 59 59 58 58 58 58 58 58 58 59 60 60 60 65 61 85 88 83 86 83 87 86 83 83 82 75 73 77 73 69 69 62 75 78 77
59 59 58 58 58 57 58 59 59 59 59 59 59 59 58 57 57 57 57 58 58 59 59 60 62 66 63 78 78 84 84 79 83 83 82 82 78 72 74 66 63 68 59 64 70 78 75
59 58 58 57 57 58 58 58 58 59 59 59 60 59 58 57 57 57 56 56 62 59 65 69 71 61 70 71 79 81 84 81 77 77 74 72 71 66 68 64 53 61 63 66 66 73 73
59 59 58 58 58 59 59 59 58 58 58 58 58 59 59 58 58 57 57 69 63 60 64 65 69 68 74 80 82 77 83 78 76 72 63 71 63 59 65 70 68 65 62 61 66 72 69
59 58 58 59 58 58 59 59 58 58 58 58 58 58 59 58 58 57 59 64 68 65 56 71 72 73 77 79 66 74 81 68 68 61 68 64 57 67 71 69 64 62 58 58 64 69 68
58 58 59 59 59 58 59 59 57 57 57 57 57 58 59 58 57 57 62 69 74 71 56 65 73 71 72 74 66 68 75 70 64 62 62 58 65 71 66 62 59 60 57 57 58 64 66
58 57 58 59 58 58 58 58 58 57 57 57 56 57 57 57 53 67 65 72 73 68 49 59 62 67 68 68 61 75 77 70 64 59 62 61 69 65 61 59 60 52 63 60 57 54 46
57 57 57 57 57 57 57 57 57 57 57 56 56 56 56 54 57 62 63 69 68 62 34 62 61 72 69 62 65 64 74 67 58 61 60 56 60 57 55 58 63 55 62 58 55 52 50
57 57 57 57 57 56 56 56 56 56 56 56 55 55 55 57 59 64 66 66 61 43 33 54 62 58 57 61 62 64 64 67 67 59 61 59 67 63 60 62 62 63 57 56 55 51 39
56 57 56 56 56 56 56 55 55 55 55 55 55 55 55 63 57 64 62 57 41 35 58 53 54 59 57 56 58 59 57 55 52 46 48 56 58 64 65 56 60 58 50 37 36 37 38
55 56 56 55 56 55 55 55 55 55 55 55 55 54 57 62 66 62 58 48 32 50 52 58 57 57 53 58 57 58 56 53 60 57 51 46 44 60 66 58 54 55 53 41 32 34 40
55 55 55 56 55 55 55 55 54 54 54 54 54 56 55 59 62 60 50 36 42 50 56 53 54 49 50 56 54 55 54 54 59 62 48 46 48 63 62 63 61 53 48 57 46 47 40
55 55 55 55 55 55 55 54 54 54 54 53 54 52 52 62 62 55 45 40 49 56 55 55 46 52 46 51 50 52 52 59 57 62 62 53 43 57 61 64 62 57 60 44 46 32 30
53 53 54 54 55 54 54 54 54 54 54 53 52 44 58 63 59 49 37 44 52 59 57 52 50 50 51 50 52 50 52 58 60 59 60 56 49 48 56 53 52 53 50 51 50 44 32
52 53 53 54 54 54 54 54 54 53 53 52 49 37 56 59 41 46 41 50 52 56 57 53 53 53 51 52 48 48 48 54 62 60 52 57 49 40 46 58 61 58 53 52 39 38 42
52 52 52 53 53 53 54 54 53 53 53 55 43 43 57 56 36 40 49 50 55 52 53 52 51 54 54 47 39 43 49 57 59 56 51 53 45 37 42 50 55 51 54 54 51 48 39
51 52 51 52 53 53 53 53 53 53 53 55 45 34 44 45 49 47 46 47 48 54 53 55 52 54 49 45 49 39 46 53 57 56 50 52 45 40 34 40 48 44 48 52 49 35 36
51 51 51 51 52 52 52 53 53 53 53 50 45 41 45 34 38 43 48 49 46 46 52 54 50 49 46 37 41 41 47 50 55 54 53 50 38 41 44 46 47 44 44 46 43 44 35
50 50 50 51 51 52 51 52 52 52 53 47 38 43 49 46 45 43 44 44 46 49 50 46 46 50 50 44 43 41 48 47 46 52 50 51 39 41 34 44 44 38 40 40 44 46 46
50 50 50 50 51 52 51 51 52 52 52 48 53 57 49 45 44 41 42 46 48 50 52 53 51 49 48 50 54 54 52 51 50 46 44 44 41 38 32 43 43 35 38 42 47 50 49
49 50 50 50 51 51 51 50 51 52 53 55 55 54 45 38 45 44 47 49 48 48 46 51 52 48 53 59 56 53 52 51 50 48 50 42 41 39 32 37 24 41 53 53 50 52 55
49 49 50 50 50 51 51 50 50 51 52 52 57 52 46 38 47 48 48 48 50 51 47 49 53 57 59 50 40 37 39 41 44 48 48 48 41 34 29 32 39 44 50 50 44 42 50
49 49 49 49 49 50 50 50 50 50 52 52 53 56 50 42 42 52 48 49 44 45 46 49 57 58 54 41 36 30 30 39 40 44 52 49 46 36 34 27 26 44 45 51 56 38 52
48 48 49 49 48 49 50 50 50 50 52 52 51 55 50 43 51 51 46 46 50 48 44 48 49 48 52 36 32 32 33 44 36 38 42 38 38 31 33 30 38 52 48 53 36 39 52
48 48 48 48 49 48 49 49 49 50 51 52 50 53 49 44 50 53 53 48 49 47 39 47 45 46 37 33 32 36 36 42 41 45 43 35 33 33 35 30 28 57 53 43 48 54 55
47 47 47 48 49 49 49 49 49 50 51 52 45 50 52 45 44 50 54 57 55 54 45 46 45 40 42 35 37 39 37 39 39 31 50 36 42 41 43 41 47 50 53 55 57 55 54
MSLP
1019.67 1019.89 1020.03 1020.04 1020.40 1020.71 1020.94 1021.04 1021.22 1021.36 1021.28 1021.48 1021.44 1021.17 1020.99 1020.77 1020.65 1020.63 1020.32 1020.08 1019.93 1019.79 1019.30 1019.02 1018.69 1018.01 1016.59 1014.04 1011.84 1011.74 1011.95 1011.71 1011.53 1010.78 1010.05 1009.41 1008.77 1007.89 1007.13 1006.40 1006.33 1005.98 1005.66 1005.36 1005.47 1005.66 1006.04
1019.04 1019.36 1019.32 1019.62 1020.29 1020.67 1020.68 1020.85 1021.03 1021.21 1021.43 1021.56 1021.48 1021.22 1020.90 1020.79 1020.66 1020.40 1020.36 1020.00 1019.82 1019.60 1019.36 1019.14 1018.71 1018.43 1016.59 1014.06 1011.36 1011.14 1011.47 1011.29 1010.88 1010.50 1009.92 1009.44 1009.38 1009.13 1008.47 1007.24 1006.65 1006.22 1006.21 1005.96 1005.73 1005.53 1005.74
1018.58 1018.88 1019.23 1019.59 1020.15 1020.64 1020.69 1020.96 1021.00 1021.23 1021.20 1021.74 1021.45 1021.37 1020.96 1020.68 1020.59 1020.39 1020.20 1019.81 1019.57 1019.47 1019.20 1019.02 1018.90 1018.20 1016.25 1013.39 1011.42 1011.13 1011.11 1011.13 1010.88 1010.91 1010.32 1009.79 1009.90 1009.76 1008.66 1007.92 1007.11 1006.67 1006.28 1005.65 1004.87 1005.09 1005.49
1018.71 1019.00 1019.32 1019.93 1020.20 1020.64 1020.91 1020.84 1020.94 1021.01 1021.22 1021.44 1021.36 1021.28 1020.95 1020.78 1020.54 1020.34 1019.97 1019.65 1019.38 1019.06 1018.91 1018.72 1018.79 1018.05 1014.64 1011.58 1011.26 1011.36 1010.96 1010.69 1010.75 1010.78 1010.61 1010.28 1010.17 1009.79 1009.15 1008.27 1007.44 1006.88 1006.14 1004.96 1003.60 1003.26 1004.54
1019.34 1019.59 1019.83 1019.81 1020.40 1020.56 1020.86 1021.12 1020.85 1021.30 1021.05 1021.41 1021.38 1021.35 1020.96 1020.69 1020.58 1020.11 1019.91 1019.36 1018.83 1018.58 1018.72 1018.48 1018.37 1016.51 1013.11 1011.67 1011.27 1010.53 1010.76 1010.26 1010.25 1010.40 1010.52 1010.59 1010.37 1009.61 1008.59 1008.27 1007.28 1005.94 1005.13 1004.04 1003.11 1003.45 1004.11
1019.25 1019.41 1019.83 1020.17 1020.50 1020.42 1021.00 1020.89 1020.97 1020.97 1021.40 1021.32 1021.42 1021.38 1021.01 1020.80 1020.44 1020.10 1019.88 1019.19 1018.12 1018.45 1017.51 1017.42 1016.45 1015.71 1012.80 1011.13 1010.64 1010.84 1010.77 1010.72 1010.17 1010.18 1010.41 1010.25 1009.97 1009.19 1008.28 1007.63 1006.48 1005.45 1004.70 1003.89 1003.37 1003.83 1004.15
1019.11 1019.28 1019.63 1019.84 1019.94 1020.53 1020.78 1020.90 1021.15 1021.08 1021.29 1021.40 1021.26 1021.28 1021.21 1020.92 1020.47 1020.06 1019.78 1017.91 1017.96 1017.36 1016.48 1014.67 1013.53 1012.33 1011.25 1010.69 1011.12 1010.83 1010.29 1010.66 1010.34 1010.03 1009.97 1009.27 1009.02 1008.32 1007.38 1006.59 1006.31 1006.46 1006.11 1005.54 1004.93 1004.48 1004.37
1018.73 1019.05 1019.56 1019.65 1019.59 1020.17 1020.60 1020.57 1021.31 1020.93 1021.27 1021.09 1021.44 1021.35 1021.19 1020.98 1020.55 1020.16 1019.96 1017.89 1016.36 1016.99 1015.30 1013.49 1012.58 1011.84 1011.34 1011.21 1011.24 1010.38 1010.33 1010.81 1010.28 1009.59 1009.27 1009.24 1008.44 1008.27 1007.70 1007.34 1007.33 1007.46 1007.08 1006.67 1006.10 1005.70 1005.51
1018.51 1018.80 1019.20 1019.29 1019.77 1019.98 1020.17 1020.38 1021.01 1021.08 1020.89 1021.07 1021.30 1021.28 1021.20 1020.86 1020.63 1020.13 1018.65 1017.11 1016.85 1016.63 1015.67 1012.19 1010.89 1010.67 1011.02 1011.35 1011.05 1010.43 1010.07 1010.29 1010.23 1009.63 1009.44 1008.61 1007.55 1007.24 1008.52 1008.56 1008.19 1008.09 1007.83 1007.49 1007.12 1006.71 1006.18
1018.26 1018.55 1018.75 1019.11 1019.59 1019.81 1020.09 1020.33 1020.53 1020.55 1020.70 1021.17 1021.07 1021.27 1021.03 1020.91 1021.07 1018.19 1017.59 1017.12 1017.40 1017.70 1015.43 1011.55 1010.84 1010.82 1011.46 1011.64 1011.00 1010.67 1010.44 1010.55 1010.09 1009.93 1009.51 1008.78 1008.25 1007.99 1008.30 1009.08 1009.29 1008.82 1008.78 1008.52 1008.41 1008.20 1007.53
1017.76 1018.24 1018.33 1018.81 1019.18 1019.52 1019.75 1020.02 1020.32 1020.49 1020.43 1020.68 1021.21 1021.10 1021.04 1021.16 1020.21 1018.35 1018.60 1018.35 1018.02 1017.82 1014.97 1011.18 1011.03 1011.36 1011.22 1011.50 1011.17 1011.01 1011.07 1011.16 1010.38 1009.80 1010.33 1009.08 1008.69 1009.31 1008.88 1009.20 1009.45 1009.69 1009.79 1009.76 1009.80 1009.36 1008.74
1017.58 1017.71 1018.00 1018.40 1018.77 1019.30 1019.59 1019.66 1020.04 1020.31 1020.48 1020.54 1020.74 1020.80 1020.99 1020.82 1020.14 1018.74 1019.03 1018.90 1018.45 1017.64 1013.22 1011.06 1010.83 1011.03 1011.26 1011.36 1011.16 1011.42 1011.30 1011.53 1010.92 1010.52 1010.03 1009.61 1009.42 1009.52 1009.29 1009.48 1009.72 1010.25 1010.33 1010.37 1010.07 1009.87 1008.82
1017.13 1017.33 1017.56 1017.86 1018.38 1018.86 1019.34 1019.58 1019.82 1020.13 1020.33 1020.31 1020.60 1020.68 1020.82 1019.96 1019.24 1019.09 1019.31 1019.03 1018.28 1015.44 1011.84 1011.14 1010.86 1010.76 1010.77 1010.79 1010.76 1011.14 1011.05 1010.94 1010.78 1010.72 1009.94 1009.23 1009.11 1009.11 1009.19 1009.64 1009.85 1010.25 1010.62 1010.47 1009.71 1009.27 1008.27
1016.81 1016.81 1017.04 1017.53 1017.92 1018.39 1018.92 1019.34 1019.85 1020.03 1020.49 1020.33 1020.51 1020.82 1020.07 1019.91 1019.27 1019.53 1019.33 1018.49 1016.60 1013.15 1011.74 1011.44 1011.33 1011.37 1010.88 1010.35 1010.61 1010.63 1010.49 1010.29 1009.88 1010.02 1009.92 1009.32 1008.69 1008.20 1008.03 1008.82 1009.28 1009.32 1009.63 1009.80 1009.27 1009.09 1008.55
1016.57 1016.53 1016.64 1016.94 1017.44 1017.85 1018.41 1019.08 1019.55 1019.93 1020.23 1020.41 1020.51 1020.62 1019.88 1019.62 1019.50 1019.56 1019.16 1017.52 1014.21 1012.94 1011.94 1011.58 1011.63 1011.37 1011.36 1010.97 1011.33 1010.73 1010.45 1010.23 1009.54 1009.19 1009.95 1009.54 1008.78 1008.48 1008.76 1009.07 1009.38 1009.21 1009.14 1009.28 1009.36 1009.66 1009.23
1016.07 1016.18 1016.23 1016.42 1016.77 1017.31 1017.98 1018.55 1019.23 1019.83 1020.07 1020.29 1020.16 1019.98 1019.07 1018.87 1019.36 1019.22 1018.57 1015.82 1013.89 1012.94 1012.53 1012.18 1011.64 1011.24 1011.17 1011.00 1011.42 1011.18 1010.84 1010.11 1009.79 1009.92 1010.32 1010.37 1009.83 1009.48 1009.11 1009.07 1009.10 1009.24 1009.46 1009.43 1009.66 1009.98 1009.69
1015.75 1015.68 1015.67 1015.76 1016.14 1016.64 1017.33 1018.00 1018.69 1019.49 1019.90 1020.15 1020.11 1019.43 1017.75 1018.34 1019.27 1018.62 1016.96 1015.23 1013.71 1012.99 1013.08 1012.76 1012.14 1011.70 1011.56 1011.45 1011.35 1011.34 1010.92 1010.73 1010.73 1010.74 1011.25 1011.24 1010.88 1010.44 1009.88 1009.24 1008.95 1008.96 1008.94 1009.41 1009.92 1010.57 1010.71
1015.32 1015.22 1015.24 1015.24 1015.42 1015.87 1016.52 1017.32 1018.11 1018.97 1019.70 1019.99 1019.72 1019.15 1018.03 1018.10 1018.81 1017.18 1016.05 1014.96 1013.92 1012.86 1013.76 1013.27 1013.07 1012.23 1012.29 1012.31 1012.57 1012.53 1012.03 1011.63 1011.58 1011.56 1011.64 1011.61 1011.51 1011.22 1010.80 1009.97 1009.24 1009.16 1009.10 1009.51 1009.96 1010.27 1010.48
1014.65 1014.82 1014.76 1014.71 1014.76 1015.29 1015.74 1016.40 1017.33 1018.19 1018.87 1018.96 1018.96 1018.95 1018.21 1018.14 1017.25 1016.36 1015.51 1014.69 1013.74 1013.83 1013.45 1013.40 1013.01 1012.93 1013.26 1013.59 1014.12 1014.02 1013.30 1012.90 1012.54 1012.59 1012.88 1013.22 1012.53 1012.01 1011.01 1010.50 1010.00 1009.80 1009.64 1009.96 1010.23 1010.25 1010.05
1014.09 1014.16 1014.31 1014.23 1014.26 1014.52 1015.10 1015.57 1016.20 1017.27 1017.97 1018.26 1018.38 1018.65 1018.24 1018.22 1017.16 1015.84 1014.91 1014.35 1013.81 1014.18 1013.80 1013.44 1013.30 1013.29 1013.97 1014.11 1014.52 1014.71 1014.17 1013.64 1013.24 1013.49 1014.10 1014.43 1014.06 1013.52 1012.46 1011.91 1011.59 1010.91 1010.51 1010.38 1010.46 1011.00 1010.86
1013.30 1013.60 1013.65 1013.81 1013.67 1013.94 1014.26 1014.55 1015.44 1016.46 1017.13 1018.24 1017.72 1016.89 1016.94 1017.09 1016.96 1016.14 1014.85 1013.97 1013.47 1013.51 1014.24 1013.82 1013.59 1013.80 1014.07 1014.53 1014.85 1014.72 1014.48 1014.18 1013.78 1013.99 1014.29 1014.70 1014.35 1014.46 1013.64 1013.21 1012.68 1011.94 1011.36 1011.05 1010.94 1010.64 1010.74
1012.58 1012.73 1012.92 1013.09 1013.14 1013.30 1013.58 1013.94 1014.68 1015.76 1016.69 1017.59 1016.64 1015.83 1015.81 1015.71 1015.83 1015.82 1014.65 1014.04 1013.66 1013.30 1013.40 1013.85 1013.60 1013.42 1013.67 1014.10 1014.79 1014.70 1014.16 1014.35 1014.16 1013.93 1014.17 1014.52 1013.99 1014.60 1013.90 1013.85 1013.15 1011.95 1011.48 1010.99 1010.48 1009.88 1009.47
1011.78 1011.95 1012.17 1012.40 1012.48 1012.69 1013.05 1013.05 1013.92 1014.87 1016.19 1016.19 1015.74 1014.95 1015.24 1014.76 1014.89 1014.97 1014.31 1014.00 1013.34 1013.52 1013.27 1013.46 1013.49 1013.63 1013.51 1014.01 1014.21 1014.40 1014.73 1014.81 1014.84 1014.84 1014.70 1014.56 1014.44 1014.50 1013.08 1013.28 1012.21 1010.76 1010.12 1009.64 1009.07 1008.65 1008.38
1010.96 1011.13 1011.32 1011.58 1011.75 1011.98 1012.22 1012.78 1012.84 1014.10 1015.13 1014.61 1014.79 1014.90 1014.91 1014.58 1013.96 1013.80 1013.98 1013.68 1013.63 1013.81 1013.84 1013.71 1013.92 1014.02 1014.16 1014.53 1015.09 1015.17 1015.08 1014.87 1014.67 1014.55 1014.65 1014.48 1014.62 1014.72 1013.79 1013.55 1011.68 1009.77 1009.21 1008.48 1007.97 1007.44 1007.02
1009.95 1010.17 1010.34 1010.66 1010.97 1011.23 1011.40 1011.85 1011.81 1013.38 1014.53 1014.58 1014.36 1014.48 1014.72 1014.33 1013.69 1013.16 1013.09 1013.30 1013.54 1013.77 1014.12 1013.81 1013.92 1014.09 1014.43 1015.63 1015.96 1015.51 1014.77 1014.06 1013.34 1012.99 1013.09 1013.67 1014.37 1014.49 1013.92 1012.71 1010.72 1009.19 1008.48 1007.77 1007.93 1007.95 1008.02
1008.86 1009.07 1009.31 1009.66 1009.97 1010.24 1010.69 1010.89 1011.58 1012.87 1014.01 1014.68 1014.49 1014.28 1014.77 1014.32 1013.59 1012.95 1012.97 1013.31 1013.37 1013.55 1013.79 1013.77 1013.97 1014.52 1015.04 1016.03 1016.61 1015.61 1014.34 1012.85 1011.23 1010.86 1011.00 1012.22 1013.55 1014.20 1013.50 1012.42 1010.40 1008.64 1008.64 1008.35 1007.63 1007.95 1008.09
1007.66 1007.91 1008.22 1008.59 1009.02 1009.23 1009.40 1010.36 1011.07 1012.63 1013.54 1014.57 1014.44 1014.61 1014.94 1014.43 1013.68 1013.39 1013.30 1013.25 1013.48 1013.72 1013.83 1014.04 1014.01 1014.52 1015.19 1016.17 1016.52 1015.39 1013.99 1012.87 1011.30 1010.40 1010.29 1011.50 1012.21 1012.66 1012.65 1012.02 1009.98 1008.44 1008.86 1008.68 1008.19 1008.65 1008.43
1006.56 1006.89 1007.31 1007.64 1008.06 1008.45 1008.97 1008.69 1009.86 1012.19 1013.24 1014.31 1014.52 1014.85 1015.14 1014.91 1014.30 1013.95 1014.00 1013.87 1013.86 1014.27 1014.47 1014.41 1014.49 1014.65 1016.03 1016.23 1016.07 1015.02 1013.45 1011.98 1010.70 1010.15 1009.87 1010.86 1011.31 1011.38 1011.59 1011.28 1009.68 1008.01 1008.16 1008.22 1008.49 1008.39 1008.50
1005.66 1006.01 1006.43 1006.73 1007.13 1007.61 1008.18 1009.45 1010.80 1011.94 1013.04 1014.06 1014.89 1015.27 1015.77 1015.75 1015.79 1015.42 1014.66 1014.37 1014.35 1014.51 1015.37 1015.22 1014.87 1015.47 1016.03 1016.41 1016.10 1015.15 1013.60 1012.70 1011.42 1010.37 1009.36 1010.15 1009.88 1009.41 1009.34 1009.21 1009.40 1008.68 1008.36 1008.46 1008.41 1008.20 1008.71
Wind_Speed
15 14 13 12 10 9 8 5 3 2 2 5 6 6 8 9 9 10 9 10 10 11 9 12 16 20 14 11 11 8 6 9 11 11 12 11 15 11 11 10 10 14 12 10 6 7 7
14 14 13 10 7 5 5 4 3 2 3 5 7 6 7 8 9 9 10 10 11 10 9 11 13 19 12 12 5 6 6 8 12 8 11 7 10 14 12 13 10 13 10 14 14 12 10
16 12 12 11 8 6 6 5 2 1 0 4 4 6 6 8 9 10 11 10 11 11 9 11 12 10 13 20 13 11 10 9 10 10 8 9 7 9 14 15 9 7 13 15 16 16 13
8 10 10 8 8 8 6 6 6 6 3 3 3 4 5 7 9 10 11 12 12 12 10 11 11 11 10 13 7 11 13 13 12 9 10 8 8 12 14 12 15 16 16 15 16 19 11
8 7 6 8 7 6 8 7 6 5 5 4 5 6 6 7 10 10 13 14 13 14 11 11 10 11 10 2 8 1 5 7 7 8 6 6 8 11 12 11 12 14 14 16 11 13 10
11 10 8 6 8 9 10 7 7 6 6 6 7 7 6 8 9 10 14 14 11 10 13 11 10 8 8 7 5 7 8 5 7 7 9 9 7 11 11 11 13 15 16 12 8 8 12
11 11 11 10 10 9 9 7 7 5 5 7 8 8 7 9 10 11 13 11 8 7 9 9 2 10 8 2 8 11 8 7 10 10 13 12 10 12 16 16 11 12 13 16 17 19 20
12 13 13 13 13 13 11 8 8 4 5 6 9 8 8 9 10 11 9 8 8 5 10 16 21 22 18 10 9 12 4 7 12 13 14 13 14 17 16 13 10 11 16 18 19 18 18
13 14 14 14 14 14 12 11 8 6 3 4 8 8 7 8 10 7 11 11 8 7 8 12 14 12 9 10 13 13 10 11 14 13 14 17 15 3 8 12 14 15 15 17 20 19 18
14 14 14 14 14 13 13 11 9 9 4 3 6 7 4 6 7 7 7 3 5 6 6 7 7 3 4 5 6 13 12 10 9 13 14 14 15 13 10 16 13 17 14 13 15 13 13
12 15 16 15 15 14 12 10 9 8 7 3 6 7 6 2 10 3 8 7 5 3 6 8 8 5 4 8 3 5 2 8 14 11 5 8 3 6 7 10 9 10 13 11 13 15 15
13 16 17 16 15 14 13 12 10 10 8 5 6 7 6 7 6 4 5 5 3 4 10 6 7 8 9 10 4 3 3 2 3 10 14 15 16 14 8 10 10 11 11 15 14 12 14
12 15 18 17 16 15 14 13 11 10 8 6 5 9 7 7 2 3 2 3 3 7 3 4 5 8 12 9 10 9 9 8 6 4 9 15 18 17 15 11 12 12 9 5 5 8 13
11 13 17 17 18 16 15 14 12 10 8 7 4 8 8 9 3 2 4 5 9 6 13 5 3 3 9 4 8 10 9 10 13 14 11 12 13 14 15 14 12 13 14 10 16 12 14
13 13 16 19 19 18 17 15 14 11 9 6 5 7 6 7 5 5 6 7 8 9 5 3 3 6 8 10 3 7 11 13 14 5 7 7 10 3 3 5 9 10 12 16 15 15 13
14 14 15 18 21 20 18 17 16 13 11 10 6 5 7 9 8 6 9 12 11 3 3 4 10 11 11 13 10 7 8 4 6 6 6 9 12 13 14 11 14 15 13 11 8 11 16
15 14 15 17 21 21 20 20 18 15 13 11 5 4 4 10 5 7 11 12 17 4 1 4 7 8 10 12 8 9 7 4 2 10 6 11 12 13 15 14 14 12 15 14 14 8 12
15 15 15 16 19 22 22 22 20 18 14 9 3 3 7 8 8 8 13 16 7 5 6 5 5 5 5 6 7 11 11 12 7 6 11 10 5 8 17 17 18 16 17 16 8 14 10
16 16 17 17 19 22 23 25 23 22 20 8 3 2 4 9 9 11 14 20 16 8 11 9 7 6 5 4 3 6 9 11 9 8 4 8 5 9 12 15 20 16 15 13 15 13 17
18 17 17 17 18 23 25 25 27 25 24 9 4 4 4 5 11 14 16 18 19 8 14 12 6 7 6 6 6 4 7 8 5 8 8 4 10 14 11 14 16 17 19 19 14 6 8
19 19 16 18 19 19 25 28 28 26 26 8 5 6 8 6 9 16 17 12 18 12 10 10 10 11 9 4 9 13 14 15 10 9 10 8 15 15 18 19 19 20 22 21 21 18 13
20 19 19 17 19 20 21 27 28 28 24 8 6 4 8 9 16 18 14 11 15 17 11 14 13 10 11 14 10 6 10 13 11 6 10 11 17 15 18 16 19 22 18 17 23 22 22
21 20 20 19 18 22 20 25 32 31 20 8 9 9 3 8 12 13 13 16 12 8 10 11 7 11 8 7 8 8 8 9 9 11 12 15 12 10 18 15 19 20 11 16 22 21 21
23 22 22 22 20 20 23 24 32 30 26 6 7 6 6 7 10 14 17 17 14 11 13 5 9 8 8 5 4 8 11 13 14 16 16 17 15 10 13 15 20 9 15 20 21 20 16
23 24 24 23 21 21 23 24 35 32 31 9 7 7 5 8 11 13 17 10 13 12 11 12 8 7 1 7 3 8 10 16 22 23 22 18 14 7 8 12 18 22 21 18 5 10 22
23 24 24 23 20 21 24 25 28 29 31 12 6 4 3 3 8 11 11 13 10 9 11 14 11 6 7 4 3 6 7 12 9 6 19 19 17 12 10 8 10 8 5 16 2 8 8
24 23 23 24 20 19 29 29 35 33 27 12 3 5 4 3 2 3 7 7 3 7 6 9 11 11 11 4 6 9 13 17 16 19 11 10 13 14 11 10 11 14 12 15 7 2 4
23 22 22 22 20 18 19 15 30 28 25 17 4 3 3 3 4 6 4 7 5 5 8 3 3 6 2 6 3 7 8 10 11 16 14 7 9 8 9 9 13 11 7 2 4 2 4
20 21 22 22 22 20 32 32 30 28 25 21 5 3 4 3 4 6 10 9 10 8 3 4 4 2 3 2 3 5 4 4 9 5 5 7 11 8 9 3 11 8 4 6 1 2 2
Wind_Direction
225 225 226 222 207 193 202 200 207 257 311 309 310 321 332 328 319 310 306 300 301 305 322 327 326 321 330 325 293 146 202 240 268 274 296 319 305 329 288 330 304 275 282 313 293 271 273
227 225 214 173 164 188 193 185 204 231 299 303 306 326 341 329 320 310 307 306 298 296 318 317 325 320 318 285 359 321 320 301 270 303 306 313 333 327 292 275 273 311 297 285 285 272 245
224 196 161 152 165 200 193 195 174 220 159 299 321 338 344 339 324 314 299 292 290 294 304 305 315 310 282 257 297 294 284 277 292 290 297 318 323 302 318 299 344 281 276 272 260 234 245
116 137 138 147 169 189 200 178 172 168 185 233 296 317 335 332 322 311 295 288 290 283 285 282 291 291 265 300 318 294 268 260 256 260 273 292 298 282 270 279 288 266 263 267 258 220 202
125 126 129 141 176 187 197 196 172 210 200 249 284 306 324 325 320 314 298 279 272 268 259 270 270 221 271 193 238 245 289 294 270 232 259 300 287 264 279 250 275 246 251 266 270 170 159
160 162 178 193 218 198 211 195 198 203 256 255 291 294 321 321 313 312 304 281 276 284 249 252 245 275 253 262 12 326 285 281 267 252 261 238 247 250 240 243 256 277 297 288 288 194 201
196 194 198 203 200 207 206 198 204 213 259 269 290 281 301 318 318 317 316 277 235 194 213 249 247 253 294 214 315 259 248 270 247 246 254 247 243 247 254 263 317 314 293 290 293 302 305
207 203 207 201 193 198 202 199 224 214 273 306 302 269 285 313 316 315 296 270 22 358 292 269 258 262 268 297 277 273 149 248 230 240 246 241 245 261 287 311 319 299 290 285 287 283 277
212 206 209 207 203 201 202 198 204 210 227 289 301 282 287 296 323 288 249 293 355 334 261 274 259 245 266 253 251 258 199 240 256 258 251 257 264 318 293 293 292 281 281 286 289 299 299
216 212 207 209 203 202 204 201 195 197 190 320 321 294 237 306 284 260 248 28 7 321 275 226 172 198 193 234 252 239 279 274 240 256 265 272 277 283 307 287 283 278 284 325 318 313 287
228 214 205 203 203 201 199 199 206 193 191 210 284 291 237 228 311 277 18 343 343 263 282 105 128 90 138 217 29 151 356 251 244 246 223 243 237 250 257 268 301 300 319 307 298 289 291
245 216 209 204 202 199 198 195 200 198 206 221 259 259 203 236 239 308 350 327 289 237 242 175 132 181 177 205 229 120 197 252 326 256 267 264 284 291 274 277 284 299 287 280 266 261 259
253 236 216 203 202 198 198 201 198 197 205 204 266 191 209 281 324 58 228 218 215 229 58 175 216 187 205 175 197 205 187 196 219 224 242 244 242 248 239 251 263 245 257 276 260 247 259
265 244 225 211 207 198 197 198 196 196 205 203 215 209 220 251 232 189 226 200 228 267 243 47 352 217 221 183 225 207 241 240 227 246 276 280 281 264 201 204 269 278 232 236 281 300 305
272 259 239 224 207 201 194 191 190 192 186 197 181 220 240 221 233 222 222 229 210 226 300 182 177 211 224 234 318 213 250 258 268 251 239 290 283 110 105 268 275 269 260 261 275 275 279
269 261 250 235 217 201 193 186 187 186 175 181 205 229 244 195 195 221 224 233 226 238 307 251 218 205 211 214 194 238 242 300 284 293 318 283 286 281 298 263 243 247 275 293 285 283 271
277 268 257 240 224 204 192 186 183 177 176 188 233 236 134 163 182 214 223 226 229 170 270 268 248 251 247 267 270 222 261 278 220 277 215 285 281 275 276 247 256 278 230 239 261 274 281
274 270 263 250 228 207 192 186 179 171 172 175 200 250 155 174 203 219 231 227 290 233 191 246 282 284 267 272 276 263 273 279 14 316 299 277 294 279 267 284 293 281 277 283 271 271 268
263 268 266 254 234 210 199 185 178 171 174 176 196 243 183 209 217 228 235 232 245 238 218 223 226 228 238 254 306 344 281 292 318 313 3 350 281 265 263 244 239 250 263 288 293 284 274
262 262 264 257 239 216 199 192 177 174 187 216 188 198 210 205 253 247 221 237 223 208 264 241 237 250 218 239 223 219 266 266 250 282 80 342 270 270 279 300 309 297 292 288 268 264 304
255 256 265 258 239 228 207 192 178 177 194 198 204 225 173 195 226 243 257 223 230 209 214 250 236 231 222 216 256 259 258 260 258 239 264 267 264 274 277 286 292 291 290 296 299 286 257
253 250 253 259 251 225 224 188 181 179 189 207 169 211 162 239 207 217 240 243 237 224 194 224 233 235 223 238 194 259 242 235 257 269 259 258 262 259 267 273 270 270 261 255 265 274 277
255 250 247 252 253 234 211 208 183 182 174 200 217 226 216 236 182 205 221 226 241 229 239 222 250 238 256 255 297 323 331 299 264 276 275 272 268 274 271 272 279 266 248 240 255 263 265
251 249 245 241 246 246 222 218 181 180 190 214 201 213 227 243 213 203 207 228 212 233 249 221 242 262 276 7 345 294 273 265 257 253 251 251 262 266 276 279 268 270 264 262 265 270 248
248 246 243 238 246 246 225 217 174 179 193 217 200 203 211 227 223 229 200 210 218 216 229 262 243 236 53 39 300 268 255 247 244 241 234 231 246 260 253 256 280 280 280 293 249 294 304
248 241 237 232 254 239 221 190 174 186 197 206 239 212 200 215 226 223 202 210 214 216 221 224 222 272 274 127 225 248 255 285 256 195 221 214 219 231 256 269 273 317 30 303 246 238 54
245 237 232 231 248 239 212 209 180 189 193 193 212 218 214 221 204 252 216 227 220 269 250 257 240 221 220 171 220 244 250 259 258 265 251 198 202 223 228 251 266 284 129 250 264 62 121
237 232 227 228 240 211 203 179 161 183 192 193 178 200 225 203 236 234 205 231 221 244 239 352 224 189 87 204 211 237 254 260 275 263 259 210 196 205 226 243 260 254 155 232 108 114 107
234 226 239 233 215 202 188 183 181 185 188 188 197 153 227 242 359 337 311 290 286 304 2 247 292 60 51 222 249 304 281 315 296 269 264 209 219 218 213 219 3 352 38 91 43 173 146